When you browse on this site, cookies collect data to enhance your experience and personalize the content and advertising you see.
Visit our Privacy Policy to learn more. By continuing to use the site, you agree to this use of cookies and data.
  • en Suisse
  • Liste des pays
  • À 7 jours
  • Température de l'eau
  • Carte météo
  • Widgets météo
  • user-avatar
    Se connecter

    Météo par heure à Dreieich

    Ce jour, 7 Juin, Dimanche

    Heure Température Précipitation Vent Pression Humidité
    00:00 +13°C° 0 mm 2 m/s 738 mmHg 75%
    01:00 +12°C° 0 mm 1 m/s 739 mmHg 77%
    02:00 +12°C° 0 mm 1 m/s 739 mmHg 77%
    03:00 +12°C° 0 mm 1 m/s 739 mmHg 78%
    04:00 +12°C° 0 mm 1 m/s 739 mmHg 78%
    05:00 +13°C° 0 mm 2 m/s 739 mmHg 75%
    06:00 +13°C° 0 mm 2 m/s 739 mmHg 72%
    07:00 +13°C° 0 mm 3 m/s 739 mmHg 70%
    08:00 +14°C° 0 mm 3 m/s 740 mmHg 62%
    09:00 +16°C° 0 mm 3 m/s 740 mmHg 55%
    10:00 +17°C° 0 mm 4 m/s 740 mmHg 48%
    11:00 +17°C° 0 mm 4 m/s 740 mmHg 47%
    12:00 +18°C° 0 mm 3 m/s 741 mmHg 47%
    13:00 +18°C° 0 mm 3 m/s 741 mmHg 47%
    14:00 +19°C° 0 mm 3 m/s 741 mmHg 47%
    15:00 +19°C° 0 mm 3 m/s 741 mmHg 46%
    16:00 +19°C° 0 mm 2 m/s 741 mmHg 46%
    17:00 +19°C° 0 mm 2 m/s 741 mmHg 50%
    18:00 +18°C° 0 mm 2 m/s 741 mmHg 55%
    19:00 +19°C° 0 mm 1 m/s 741 mmHg 59%
    20:00 +16°C° 0 mm 1 m/s 742 mmHg 62%
    21:00 +15°C° 0 mm 1 m/s 742 mmHg 66%
    22:00 +14°C° 0 mm 1 m/s 742 mmHg 69%
    23:00 +12°C° 0 mm 0 m/s 742 mmHg 72%

    Demain, 8 Juin, Lundi

    Heure Température Précipitation Vent Pression Humidité
    00:00 +11°C° 0 mm 0 m/s 743 mmHg 74%
    01:00 +11°C° 0 mm 0 m/s 743 mmHg 76%
    02:00 +10°C° 0 mm 0 m/s 743 mmHg 78%
    03:00 +10°C° 0 mm 0 m/s 743 mmHg 79%
    04:00 +10°C° 0 mm 0 m/s 743 mmHg 80%
    05:00 +11°C° 0 mm 0 m/s 743 mmHg 76%
    06:00 +12°C° 0 mm 0 m/s 743 mmHg 71%
    07:00 +13°C° 0 mm 0 m/s 743 mmHg 67%
    08:00 +16°C° 0 mm 1 m/s 744 mmHg 61%
    09:00 +19°C° 0 mm 1 m/s 744 mmHg 55%
    10:00 +21°C° 0 mm 1 m/s 744 mmHg 49%
    11:00 +22°C° 0 mm 1 m/s 744 mmHg 46%
    12:00 +23°C° 0 mm 1 m/s 743 mmHg 42%
    13:00 +23°C° 0 mm 1 m/s 743 mmHg 39%
    14:00 +23°C° 0 mm 1 m/s 743 mmHg 39%
    15:00 +23°C° 0 mm 2 m/s 743 mmHg 39%
    16:00 +23°C° 0 mm 2 m/s 743 mmHg 39%
    17:00 +23°C° 0 mm 2 m/s 743 mmHg 44%
    18:00 +22°C° 0 mm 1 m/s 743 mmHg 48%
    19:00 +21°C° 0 mm 1 m/s 743 mmHg 53%
    20:00 +20°C° 0 mm 1 m/s 743 mmHg 57%
    21:00 +18°C° 0 mm 1 m/s 743 mmHg 60%
    22:00 +16°C° 0 mm 1 m/s 744 mmHg 64%
    23:00 +15°C° 0 mm 1 m/s 744 mmHg 68%

    Après-demain, 9 Juin, Mardi

    Heure Température Précipitation Vent Pression Humidité
    00:00 +14°C° 0 mm 1 m/s 744 mmHg 71%
    01:00 +14°C° 0 mm 1 m/s 744 mmHg 75%
    02:00 +13°C° 0 mm 1 m/s 744 mmHg 76%
    03:00 +13°C° 0 mm 1 m/s 744 mmHg 78%
    04:00 +12°C° 0 mm 1 m/s 744 mmHg 79%
    05:00 +13°C° 0 mm 1 m/s 744 mmHg 76%
    06:00 +14°C° 0 mm 1 m/s 745 mmHg 73%
    07:00 +15°C° 0 mm 2 m/s 745 mmHg 70%
    08:00 +17°C° 0.2 mm 2 m/s 745 mmHg 67%
    09:00 +18°C° 0.2 mm 2 m/s 745 mmHg 63%
    10:00 +20°C° 0.2 mm 2 m/s 745 mmHg 60%
    11:00 +20°C° 0.5 mm 2 m/s 745 mmHg 57%
    12:00 +21°C° 0.5 mm 3 m/s 745 mmHg 55%
    13:00 +21°C° 0.5 mm 3 m/s 745 mmHg 53%
    14:00 +22°C° 0.1 mm 3 m/s 745 mmHg 51%
    15:00 +22°C° 0.1 mm 3 m/s 745 mmHg 49%
    16:00 +23°C° 0.1 mm 2 m/s 744 mmHg 47%
    17:00 +21°C° 0.1 mm 2 m/s 745 mmHg 53%
    18:00 +20°C° 0.1 mm 2 m/s 745 mmHg 58%
    19:00 +19°C° 0.1 mm 2 m/s 745 mmHg 64%
    20:00 +18°C° 0.1 mm 2 m/s 745 mmHg 67%
    21:00 +18°C° 0.1 mm 2 m/s 745 mmHg 70%
    22:00 +18°C° 0.1 mm 1 m/s 746 mmHg 73%
    23:00 +16°C° 0 mm 1 m/s 745 mmHg 74%

    10 Juin, Mercredi

    Heure Température Précipitation Vent Pression Humidité
    00:00 +16°C° 0 mm 1 m/s 745 mmHg 76%
    01:00 +15°C° 0 mm 1 m/s 745 mmHg 78%
    02:00 +15°C° 0 mm 1 m/s 745 mmHg 78%
    03:00 +15°C° 0 mm 1 m/s 745 mmHg 79%
    04:00 +15°C° 0 mm 1 m/s 745 mmHg 80%
    05:00 +15°C° 0 mm 1 m/s 745 mmHg 79%
    06:00 +15°C° 0 mm 1 m/s 745 mmHg 79%
    07:00 +15°C° 0 mm 1 m/s 745 mmHg 79%
    08:00 +16°C° 0.1 mm 1 m/s 745 mmHg 76%
    09:00 +18°C° 0.1 mm 1 m/s 745 mmHg 72%
    10:00 +19°C° 0.1 mm 1 m/s 745 mmHg 69%
    11:00 +20°C° 0.2 mm 1 m/s 745 mmHg 66%
    12:00 +20°C° 0.2 mm 2 m/s 744 mmHg 62%
    13:00 +21°C° 0.2 mm 2 m/s 744 mmHg 58%
    14:00 +21°C° 0.4 mm 2 m/s 744 mmHg 61%
    15:00 +21°C° 0.4 mm 2 m/s 743 mmHg 64%
    16:00 +20°C° 0.4 mm 3 m/s 743 mmHg 67%
    17:00 +20°C° 0.1 mm 3 m/s 743 mmHg 66%
    18:00 +19°C° 0.1 mm 3 m/s 743 mmHg 66%
    19:00 +19°C° 0.1 mm 3 m/s 743 mmHg 65%
    20:00 +18°C° 0 mm 3 m/s 743 mmHg 65%
    21:00 +16°C° 0 mm 3 m/s 743 mmHg 64%
    22:00 +15°C° 0 mm 2 m/s 743 mmHg 64%
    23:00 +14°C° 0 mm 2 m/s 743 mmHg 66%

    11 Juin, Jeudi

    Heure Température Précipitation Vent Pression Humidité
    00:00 +14°C° 0 mm 2 m/s 743 mmHg 68%
    01:00 +13°C° 0 mm 1 m/s 743 mmHg 70%
    02:00 +13°C° 0 mm 1 m/s 742 mmHg 72%
    03:00 +13°C° 0 mm 1 m/s 742 mmHg 74%
    04:00 +12°C° 0 mm 1 m/s 742 mmHg 76%
    05:00 +13°C° 0 mm 1 m/s 742 mmHg 73%
    06:00 +14°C° 0 mm 1 m/s 742 mmHg 70%
    07:00 +15°C° 0 mm 1 m/s 742 mmHg 67%
    08:00 +17°C° 0 mm 2 m/s 742 mmHg 66%
    09:00 +18°C° 0 mm 2 m/s 742 mmHg 64%
    10:00 +19°C° 0 mm 2 m/s 742 mmHg 62%
    11:00 +20°C° 0.1 mm 3 m/s 742 mmHg 58%
    12:00 +20°C° 0.1 mm 3 m/s 741 mmHg 54%
    13:00 +21°C° 0.1 mm 3 m/s 741 mmHg 50%
    14:00 +22°C° 0 mm 3 m/s 741 mmHg 49%
    15:00 +22°C° 0 mm 3 m/s 740 mmHg 47%
    16:00 +24°C° 0 mm 3 m/s 740 mmHg 46%
    17:00 +22°C° 0 mm 3 m/s 740 mmHg 51%
    18:00 +23°C° 0 mm 2 m/s 740 mmHg 56%
    19:00 +21°C° 0 mm 2 m/s 740 mmHg 60%
    20:00 +19°C° 0 mm 2 m/s 740 mmHg 66%
    21:00 +18°C° 0 mm 2 m/s 740 mmHg 72%
    22:00 +17°C° 0 mm 2 m/s 740 mmHg 78%
    23:00 +16°C° 0 mm 2 m/s 740 mmHg 80%

    12 Juin, Vendredi

    Heure Température Précipitation Vent Pression Humidité
    00:00 +15°C° 0 mm 2 m/s 740 mmHg 82%
    01:00 +15°C° 0 mm 2 m/s 739 mmHg 84%
    02:00 +14°C° 0 mm 2 m/s 739 mmHg 85%
    03:00 +14°C° 0 mm 2 m/s 739 mmHg 87%
    04:00 +14°C° 0 mm 2 m/s 739 mmHg 88%
    05:00 +15°C° 0 mm 2 m/s 739 mmHg 84%
    06:00 +16°C° 0 mm 2 m/s 739 mmHg 80%
    07:00 +17°C° 0 mm 2 m/s 739 mmHg 77%
    08:00 +19°C° 0 mm 2 m/s 739 mmHg 70%
    09:00 +20°C° 0 mm 2 m/s 739 mmHg 64%
    10:00 +23°C° 0 mm 2 m/s 739 mmHg 57%
    11:00 +25°C° 0 mm 2 m/s 739 mmHg 53%
    12:00 +26°C° 0 mm 2 m/s 739 mmHg 48%
    13:00 +27°C° 0 mm 2 m/s 739 mmHg 44%
    14:00 +26°C° 0.4 mm 2 m/s 739 mmHg 51%
    15:00 +25°C° 0.4 mm 2 m/s 739 mmHg 58%
    16:00 +24°C° 0.4 mm 3 m/s 738 mmHg 66%
    17:00 +22°C° 0.8 mm 3 m/s 738 mmHg 69%
    18:00 +21°C° 0.8 mm 3 m/s 738 mmHg 73%
    19:00 +20°C° 0.8 mm 2 m/s 739 mmHg 77%
    20:00 +19°C° 0.7 mm 2 m/s 739 mmHg 80%
    21:00 +18°C° 0.7 mm 2 m/s 739 mmHg 83%
    22:00 +17°C° 0.7 mm 2 m/s 739 mmHg 86%
    23:00 +17°C° 1.8 mm 3 m/s 739 mmHg 87%
    Voir plus